Location: Aragnouet
(42.7874°N, 0.2165°E)
Time: 10:45:56
(UTC+00:00)

Cosmos 1656 Rocket - Pass Details

Date: 09 April 2020
Orbit: 796 x 846 km, 71.1° (Epoch: 03 June)

Event Time Altitude Azimuth Distance (km) Brightness Sun altitude
Rises 19:04:52 0° 336° (NNW) 3,405 7.5 -6.2°
Reaches altitude 10° 19:07:20 10° 338° (NNW) 2,462 6.7 -6.6°
Maximum altitude 19:13:00 79° 65° (ENE) 852 3.7 -7.6°
Drops below altitude 10° 19:18:32 10° 152° (SSE) 2,415 5.7 -8.5°
Enters shadow 19:20:50 - 154° (SSE) 3,296 6.3 -8.9°
